[[{"header":{"parameterUnit":"m.s-1","parameterCategory":1,"la1":30.2991,"la2":30.254,"lo1":-89.0895,"lo2":-89.0444,"dy":0.0017,"dx":0.0017,"nx":28,"ny":28,"refTime":"2023-08-10T21:00:00:Z","depth":0,"parameterNumber":2,"parameterNumberName":"U-component_of_WINDS"},"data":[0,0,0,0,0,0,0,0,0,0,0,0,0,0,0,0,0,0,0,0,0,0,0,0,0,0,0,0,0,0,0,0,0,0,0,0,0,0,0,0,0,0,0,0,0,0,0,0,0,0,0,0,0,0,0,0,0,0,5.209,5.2092,0,5.2262,5.2264,5.2266,5.2232,5.2229,5.2226,5.2223,5.2398,5.2406,5.2413,0,0,0,0,0,0,0,0,0,0,0,0,0,5.1729,5.1736,5.209,5.2092,5.2094,5.2262,5.2264,5.2266,5.2233,5.2229,5.2225,5.2221,5.2396,5.2405,5.2414,0,0,0,0,0,0,0,0,0,0,0,0,0,5.1892,5.1738,5.209,5.2098,5.21,5.2261,5.2264,5.2267,5.2233,5.2229,5.2224,5.222,5.2393,5.2404,5.2415,5.2579,0,0,5.245,5.2455,0,0,0,0,0,0,0,0,5.1882,5.1905,5.2094,5.2097,5.21,5.2221,5.2201,5.2371,5.2235,5.2183,5.2223,5.2217,5.2343,5.2358,5.2401,5.2587,5.2594,5.2451,5.2458,5.2462,5.2466,0,0,0,0,0,0,0,5.1871,5.1897,5.2158,5.2097,5.2101,5.2091,5.2109,5.2233,5.2287,5.2187,5.2185,5.2206,5.2344,5.239,5.2404,5.2597,5.245,5.246,5.2467,5.2472,5.2921,5.2925,0,0,0,0,0,0,5.1857,5.1888,5.2152,5.2163,5.1978,5.2102,5.2122,5.2187,5.2286,5.2296,5.221,5.2204,5.2373,5.2391,5.241,5.2604,5.2462,5.2473,5.248,5.2916,5.2922,5.2927,0,0,0,0,0,0,5.185,5.1881,5.2146,5.2025,5.2058,5.2113,5.2186,5.2193,5.2239,5.2303,5.2312,5.2247,5.237,5.2394,5.2536,5.261,5.2478,5.2488,5.2909,5.2917,5.2924,5.2996,0,0,0,0,0,0,5.184,5.1879,5.1943,5.2027,5.2065,5.2269,5.2191,5.2199,5.2258,5.2252,5.234,5.235,5.2368,5.2519,5.2547,5.2623,5.2497,5.2903,5.2913,5.2922,5.2987,5.3005,5.3021,0,0,0,0,0,5.1827,5.1957,5.1946,5.1978,5.2146,5.2274,5.2295,5.2313,5.2265,5.2328,5.2368,5.2347,5.2598,5.2534,5.2565,5.2646,5.2898,5.291,5.2921,5.298,5.3002,5.302,0,0,0,0,0,0,5.1881,5.1968,5.1957,5.2119,5.2189,5.2268,5.2349,5.2337,5.2422,5.2413,5.2431,5.2451,5.2594,5.2635,5.2562,5.2807,5.2741,5.2759,5.2775,5.2796,5.2813,5.2798,5.2507,0,0,0,0,0,5.1911,5.2009,5.208,5.2215,5.2251,5.2294,5.2351,5.2358,5.2432,5.2461,5.2512,5.2584,5.2678,5.274,5.2831,5.2994,5.301,5.3064,5.3081,5.3094,5.3109,5.3193,5.3217,5.2965,5.2965,5.2965,0,0,5.1976,5.2035,5.2096,5.2228,5.2283,5.2381,5.2319,5.2428,5.25,5.2478,5.2613,5.2653,5.2734,5.2885,5.2955,5.2923,5.3182,5.3109,5.3119,5.3127,5.3208,5.3231,5.3252,5.2973,5.2971,5.297,0,0,5.2142,5.2199,5.2316,5.2372,5.2456,5.2483,5.2511,5.2592,5.2617,5.2753,5.2737,5.2823,5.2987,5.3044,5.3094,5.3279,5.326,5.3308,5.3394,5.3476,5.3495,5.3513,5.3575,5.3597,5.3323,5.3323,5.3323,0,5.2211,5.236,5.2377,5.2486,5.2542,5.2526,5.2643,5.2696,5.2806,5.2845,5.2808,5.301,5.3064,5.3226,5.3271,5.3314,5.3343,5.3297,5.3491,5.3509,5.3526,5.3585,5.3608,5.3328,5.3327,5.3327,5.3326,0,5.2438,5.2541,5.2626,5.273,5.2797,5.2909,5.2941,5.3006,5.3008,5.3038,5.3175,5.3238,5.3339,5.3379,5.3383,5.3541,5.3518,5.3487,5.342,5.3554,5.361,5.3633,5.3335,5.3333,5.3332,5.333,0,0,5.2643,5.2754,5.2785,5.283,5.292,5.3,5.311,5.3208,5.3261,5.3338,5.3428,5.3565,5.3535,5.3592,5.3602,5.3674,5.381,5.3633,5.3635,5.366,5.3984,5.4004,5.403,5.38,5.3805,5.3808,5.3975,0,5.2815,5.3009,5.3027,5.32,5.3293,5.3278,5.3373,5.3438,5.3469,5.3551,5.3585,5.368,5.3636,5.3669,5.3741,5.3779,5.3875,5.3768,5.3881,5.3885,5.3858,5.4059,5.4082,5.4237,5.3997,5.4001,5.4004,0,5.3041,5.3121,5.3304,5.3377,5.3417,5.3503,5.3592,5.3672,5.3744,5.3761,5.3823,5.3821,5.3932,5.3863,5.4014,5.394,5.3988,5.4014,5.402,5.4028,5.395,5.4069,5.4287,5.4308,5.4039,5.4036,5.4034,0,5.3167,5.3321,5.3449,5.3489,5.3579,5.3639,5.3679,5.3746,5.3803,5.3881,5.3917,5.4008,5.4056,5.4125,5.4147,5.4096,5.4296,5.423,5.431,5.4309,5.435,5.4347,5.4574,5.4388,5.4387,5.4387,5.4386,0,5.3354,5.3465,5.3506,5.3584,5.3707,5.3726,5.3846,5.3883,5.3943,5.4026,5.402,5.4098,5.4124,5.4206,5.4224,5.4343,5.4367,5.4381,5.4384,5.4379,5.4377,5.4408,5.4397,5.4393,5.4392,5.439,5.4389,0,5.3515,5.3547,5.3684,5.3757,5.3778,5.3865,5.3927,5.4001,5.403,5.4135,5.4161,5.4206,5.4302,5.4331,5.4448,5.4459,5.4597,5.4593,5.4573,5.4572,5.4648,5.4639,5.4901,5.4934,5.473,5.4732,5.4733,0,5.363,5.3715,5.3797,5.3852,5.3894,5.3984,5.404,5.4061,5.4121,5.4207,5.427,5.4364,5.4441,5.4594,5.4636,5.4724,5.4719,5.4805,5.4732,5.4723,5.4715,5.4707,5.4714,5.4817,5.4819,5.4821,5.4822,0,5.3831,5.3842,5.3924,5.4012,5.408,5.415,5.4217,5.4263,5.4293,5.4359,5.4457,5.4516,5.4633,5.4726,5.4814,5.4854,5.4842,5.4845,5.4867,5.4862,5.4845,5.485,5.4605,5.4838,5.4837,5.4836,5.4835,5.4834,5.3969,5.4042,5.411,5.4201,5.4253,5.4315,5.4387,5.4424,5.4506,5.4602,5.461,5.4714,5.478,5.4897,5.4941,5.5022,5.4996,5.503,5.5038,5.5045,5.5048,5.4835,5.5038,5.5038,5.5038,5.5037,5.5037,0,5.4165,5.4207,5.4291,5.4384,5.4455,5.4439,5.4512,5.4571,5.4663,5.4726,5.4801,5.491,5.4999,5.5048,5.5136,5.5191,5.5187,5.5213,5.5207,5.5215,5.5068,5.5038,5.5214,5.5214,5.5214,5.5213,5.5213,5.5213,5.4275,5.4396,5.4414,5.456,5.4601,5.4702,5.4745,5.4801,5.485,5.4973,5.5047,5.5078,5.5134,5.5225,5.5305,5.5317,5.5347,5.5375,5.5383,5.5244,5.5226,5.5209,5.518,5.5383,5.5383,5.5523,5.5524,5.5525]},{"header":{"parameterUnit":"m.s-1","parameterCategory":1,"la1":30.2991,"la2":30.254,"lo1":-89.0895,"lo2":-89.0444,"dy":0.0017,"dx":0.0017,"nx":28,"ny":28,"refTime":"2023-08-10T21:00:00:Z","depth":0,"parameterNumber":3,"parameterNumberName":"V-component_of_WINDS"},"data":[0,0,0,0,0,0,0,0,0,0,0,0,0,0,0,0,0,0,0,0,0,0,0,0,0,0,0,0,0,0,0,0,0,0,0,0,0,0,0,0,0,0,0,0,0,0,0,0,0,0,0,0,0,0,0,0,0,0,3.0029,3.003,0,3.01,3.0101,3.0101,3.0073,3.0071,3.0069,3.0068,3.0138,3.0141,3.0144,0,0,0,0,0,0,0,0,0,0,0,0,0,2.9865,2.9868,3.0029,3.003,3.0031,3.01,3.0101,3.0102,3.0073,3.0071,3.0069,3.0067,3.0137,3.0141,3.0145,0,0,0,0,0,0,0,0,0,0,0,0,0,2.9936,2.9869,3.0029,3.0025,3.0025,3.01,3.0101,3.0102,3.0073,3.0071,3.0068,3.0066,3.0135,3.014,3.0145,3.0227,0,0,3.0161,3.0163,0,0,0,0,0,0,0,0,2.9932,2.9942,3.0025,3.0025,3.0026,3.0075,3.0068,3.0144,3.0074,3.0055,3.0068,3.0065,3.0119,3.0125,3.0144,3.023,3.0233,3.0161,3.0164,3.0167,3.0168,0,0,0,0,0,0,0,2.9927,2.9939,3.0057,3.0026,3.0026,3.0018,3.0025,3.0082,3.01,3.0056,3.0055,3.0063,3.0118,3.0139,3.0145,3.0234,3.0161,3.0166,3.0169,3.0171,3.0388,3.0391,0,0,0,0,0,0,2.9922,2.9935,3.0055,3.0059,2.9972,3.0023,3.0031,3.0062,3.0099,3.0103,3.0066,3.0062,3.0131,3.0139,3.0147,3.0244,3.0167,3.0171,3.0174,3.0386,3.0389,3.0392,0,0,0,0,0,0,2.9919,2.9933,3.0052,2.9996,3.0011,3.0029,3.0063,3.0064,3.0085,3.0106,3.0109,3.0083,3.013,3.014,3.0207,3.0246,3.0174,3.0178,3.0383,3.0387,3.039,3.0439,0,0,0,0,0,0,2.9914,2.9932,2.9965,2.9997,3.0014,3.0112,3.0065,3.0068,3.0094,3.009,3.0124,3.0127,3.0128,3.0199,3.0212,3.0252,3.0182,3.0379,3.0384,3.0389,3.0434,3.0444,3.0453,0,0,0,0,0,2.9909,2.9975,2.9967,2.9981,3.0055,3.0114,3.0123,3.0125,3.0097,3.0129,3.0142,3.0126,3.024,3.0207,3.022,3.0262,3.0377,3.0383,3.0389,3.0429,3.0442,3.0452,0,0,0,0,0,0,2.9947,2.998,2.997,3.005,3.0079,3.0109,3.0149,3.0138,3.0176,3.017,3.0169,3.0177,3.0246,3.0261,3.0223,3.0342,3.0304,3.0313,3.033,3.0342,3.0351,3.0346,3.0187,0,0,0,0,0,2.9964,3.0011,3.0037,3.0104,3.0119,3.0132,3.0158,3.0156,3.0186,3.0198,3.0217,3.0246,3.0288,3.0316,3.0356,3.0436,3.0441,3.0471,3.048,3.0488,3.0496,3.0537,3.055,3.0412,3.0412,3.0412,0,0,3.0001,3.0025,3.0054,3.0112,3.0135,3.0181,3.0143,3.0194,3.0228,3.0206,3.027,3.0284,3.0316,3.0389,3.0423,3.0404,3.0535,3.0496,3.0502,3.0505,3.0545,3.0558,3.0569,3.0416,3.0415,3.0415,0,0,3.0092,3.0115,3.0173,3.0197,3.0231,3.0239,3.0253,3.0284,3.0293,3.0357,3.0341,3.0381,3.0454,3.0477,3.0498,3.0595,3.058,3.0608,3.0658,3.0698,3.0709,3.0718,3.0751,3.0763,3.0616,3.0616,3.0616,0,3.0133,3.0204,3.0204,3.0257,3.0282,3.0264,3.0322,3.0344,3.039,3.0407,3.0386,3.0476,3.0496,3.0573,3.0597,3.0615,3.063,3.0604,3.0707,3.0717,3.0726,3.0757,3.077,3.0619,3.0619,3.0618,3.0618,0,3.0252,3.0301,3.0343,3.0388,3.0418,3.0473,3.048,3.051,3.0505,3.0514,3.0579,3.0602,3.0646,3.0664,3.066,3.0741,3.0728,3.0707,3.0668,3.0742,3.0771,3.0784,3.0623,3.0622,3.0621,3.0621,0,0,3.037,3.0413,3.0429,3.0448,3.0484,3.0521,3.0574,3.0617,3.0642,3.0674,3.0717,3.0778,3.0758,3.0783,3.0781,3.0816,3.0889,3.079,3.0791,3.0807,3.0977,3.0992,3.1006,3.088,3.0882,3.0884,3.0974,0,3.0462,3.0556,3.0557,3.0643,3.0687,3.067,3.0715,3.0741,3.0751,3.0788,3.0798,3.0841,3.0813,3.0827,3.0862,3.0873,3.0923,3.0867,3.0918,3.092,3.091,3.1022,3.1038,3.1122,3.0986,3.0988,3.0989,0,3.0584,3.0619,3.0709,3.0737,3.0755,3.0797,3.0835,3.0872,3.09,3.0905,3.0931,3.0923,3.0975,3.0935,3.1005,3.0966,3.0987,3.0996,3.0999,3.1004,3.0959,3.1028,3.1149,3.1161,3.1007,3.1006,3.1005,0,3.0659,3.0729,3.0791,3.0809,3.0843,3.0872,3.0888,3.0914,3.0939,3.0972,3.0988,3.1027,3.1048,3.1077,3.1079,3.105,3.1149,3.111,3.1153,3.1153,3.1174,3.1173,3.1299,3.1189,3.1189,3.1189,3.1189,0,3.0762,3.0817,3.0825,3.0864,3.0925,3.0924,3.0984,3.0997,3.102,3.1059,3.1046,3.1083,3.1084,3.1121,3.1123,3.118,3.119,3.1193,3.1193,3.1194,3.1193,3.1207,3.1201,3.1192,3.1191,3.1191,3.119,0,3.0856,3.0864,3.0931,3.0958,3.0966,3.1009,3.1031,3.1067,3.1075,3.1124,3.1136,3.1148,3.119,3.1195,3.1245,3.1246,3.1314,3.1308,3.1305,3.1304,3.1346,3.1342,3.1485,3.1503,3.1382,3.1384,3.1385,0,3.0921,3.0963,3.0994,3.102,3.1037,3.1079,3.1104,3.1105,3.1132,3.1166,3.1197,3.1239,3.1272,3.1341,3.1353,3.139,3.1384,3.1432,3.139,3.1389,3.1384,3.1381,3.1384,3.144,3.1441,3.1442,3.1443,0,3.1035,3.1036,3.1074,3.1113,3.1144,3.1174,3.1202,3.1224,3.1228,3.1258,3.1302,3.1328,3.1378,3.1419,3.1456,3.147,3.1457,3.1456,3.1468,3.1469,3.1465,3.1467,3.1326,3.1453,3.1452,3.1451,3.1451,3.1451,3.1116,3.1152,3.1179,3.1221,3.1242,3.1268,3.1303,3.1314,3.1351,3.1393,3.1391,3.1438,3.1463,3.1511,3.1528,3.1564,3.1548,3.1566,3.157,3.1574,3.1577,3.146,3.1571,3.1571,3.157,3.157,3.157,0,3.1228,3.1244,3.1283,3.1323,3.1355,3.134,3.1371,3.1398,3.1441,3.1466,3.1498,3.1548,3.1587,3.1601,3.1639,3.1665,3.166,3.1675,3.1673,3.1676,3.159,3.1576,3.1678,3.1678,3.1678,3.1678,3.1678,3.1678,3.129,3.1349,3.1354,3.1423,3.1438,3.1486,3.1504,3.1527,3.1547,3.1603,3.1635,3.1645,3.1665,3.1704,3.1738,3.1741,3.1755,3.1772,3.1773,3.1693,3.1682,3.1671,3.1658,3.1776,3.1776,3.1855,3.1856,3.1856]}]]